Dewpoint
54 54 54 54 54 54 54 54 54 54 55 55 55 56 55 56 56 56 56 56 57 57 56 56 55 56 56 55 55 55 56 53 51 49 49 44 49 54 63 62 63 64 65 72 70 68 67 67 67 67 63 66 63 64 66 67 67 68 62 59 57 58 56 56 54 51 50 55 59 60 60 59 59 60 61 63 63 62 62 62 63 64 64 65 66 67 68 68
53 54 55 54 54 54 55 55 54 54 55 55 55 55 56 55 56 56 56 56 56 56 56 56 56 55 55 55 55 55 54 53 51 50 48 47 57 58 61 63 66 66 67 70 68 66 65 64 65 64 62 63 61 62 67 66 66 64 61 59 56 57 58 58 56 56 53 52 59 60 60 59 58 59 60 60 61 61 61 62 63 63 64 65 66 67 67 67
54 54 54 54 54 55 55 55 54 55 55 55 55 55 55 55 56 56 56 56 56 56 56 56 55 55 55 55 56 57 54 50 50 47 43 59 59 59 62 62 68 68 67 68 66 65 63 62 63 61 61 60 60 60 65 63 65 64 62 58 59 59 59 58 57 56 54 56 57 58 59 58 58 59 60 59 60 61 61 61 62 62 63 64 65 66 67 66
54 54 54 54 54 54 54 55 55 55 55 55 55 55 56 56 56 56 56 56 56 56 56 56 55 55 55 55 57 56 54 51 43 39 41 60 65 60 63 64 68 67 66 66 65 63 63 61 62 59 59 58 58 60 62 62 62 62 62 60 59 60 59 58 59 58 56 56 56 57 59 57 58 58 59 60 60 60 60 62 62 62 63 64 65 66 66 66
54 54 55 54 54 54 54 55 55 55 55 55 55 55 55 56 56 56 56 56 56 56 56 55 55 55 55 57 57 49 46 22 24 42 44 72 68 63 65 66 67 63 62 59 55 59 59 59 59 58 57 56 56 58 59 61 63 62 61 61 60 60 58 58 57 57 56 55 56 57 57 57 58 58 58 60 58 58 60 62 62 63 64 64 65 65 66 65
54 54 55 55 54 54 54 55 55 55 55 55 55 56 56 56 56 56 56 56 56 56 56 55 55 55 55 57 53 53 36 7 30 33 66 68 70 65 64 67 68 63 54 54 52 56 54 56 55 55 54 55 55 57 57 60 62 59 60 61 61 61 60 61 55 55 55 53 55 55 57 55 57 56 58 59 58 59 61 63 63 64 64 65 65 65 65 65
54 55 54 55 55 54 55 55 55 55 55 56 56 56 56 56 55 55 55 55 55 56 56 55 55 55 55 57 53 50 33 27 35 35 54 68 72 67 64 65 69 60 53 49 51 51 51 53 51 52 52 53 54 56 55 58 60 60 59 59 58 60 60 61 60 59 55 52 52 55 55 53 56 54 57 59 59 61 61 63 63 64 65 65 65 65 65 65
54 54 55 55 55 54 54 54 55 55 55 56 56 56 55 55 55 55 55 56 56 56 56 55 55 55 57 52 49 42 39 29 28 31 48 73 72 65 63 61 63 58 51 46 50 48 51 51 48 50 49 50 50 54 54 54 57 57 57 58 58 57 56 56 55 53 53 52 52 53 53 52 55 54 58 58 59 61 62 64 63 64 64 64 65 65 65 65
54 54 55 55 55 54 54 55 55 55 55 55 55 55 55 55 55 55 55 56 56 55 55 55 55 56 57 53 43 24 15 35 41 55 61 67 66 62 59 58 60 55 51 47 48 46 48 49 46 48 45 48 49 52 52 51 50 56 57 57 56 54 54 53 53 53 51 51 51 51 51 52 53 54 56 57 59 61 63 63 63 63 64 64 64 65 64 65
54 54 54 54 54 54 55 55 55 55 55 55 55 55 55 55 55 56 56 56 56 55 55 55 55 57 55 50 39 21 23 32 55 62 63 62 61 57 57 55 58 54 50 47 45 45 43 47 45 47 48 48 48 49 52 51 50 52 53 54 53 53 52 51 50 50 50 49 50 49 50 50 51 51 49 58 60 62 63 63 63 63 63 63 64 64 64 65
54 54 54 54 54 54 54 55 55 55 55 55 54 55 55 55 55 56 56 56 56 56 56 56 56 56 49 51 32 21 27 39 39 49 58 57 55 54 54 53 56 52 49 48 46 43 40 46 45 46 43 44 48 47 50 50 51 50 48 45 43 44 46 48 48 49 50 49 49 49 49 50 50 50 49 59 61 63 63 63 63 62 63 63 63 63 64 65
54 54 54 54 53 54 54 55 55 54 54 54 54 55 55 55 54 55 56 56 56 56 56 57 57 55 52 47 38 25 34 41 40 41 55 53 53 52 53 51 53 50 48 47 47 46 45 44 45 43 34 45 45 43 44 46 45 43 41 39 40 41 41 42 43 45 49 48 49 49 48 47 48 48 52 60 61 62 63 63 62 62 62 62 63 63 64 65
54 54 54 53 53 54 54 54 54 54 54 54 54 55 54 53 54 56 57 56 56 56 57 58 57 56 46 35 39 38 36 36 38 43 43 51 54 52 50 51 48 47 44 45 45 46 44 44 44 40 39 38 36 32 36 43 43 42 41 40 39 39 39 40 42 44 45 45 48 48 44 45 47 49 58 60 61 62 62 62 62 62 62 62 62 63 64 65
54 54 54 53 53 54 54 54 53 53 53 54 54 53 53 53 54 58 59 56 57 57 58 59 56 55 46 36 36 44 46 44 47 47 46 44 53 52 51 52 49 46 42 38 37 39 42 41 44 40 32 31 31 30 30 30 35 38 39 39 38 38 38 42 44 42 41 43 47 48 44 45 46 48 59 60 61 61 61 62 62 62 61 62 62 63 64 65
54 54 53 53 53 54 54 53 53 53 53 53 53 52 52 52 56 59 58 57 58 59 59 58 55 49 43 41 45 47 59 57 53 50 49 40 47 48 52 52 50 48 43 39 37 38 40 32 40 37 35 35 33 31 27 33 35 36 35 37 39 38 39 40 43 40 39 43 47 46 44 44 45 52 59 60 60 61 60 61 61 61 61 61 62 63 64 64
53 54 53 53 53 54 53 52 52 53 53 52 51 51 53 54 59 59 58 58 60 60 57 53 54 53 48 40 38 48 51 45 34 42 50 39 39 39 51 51 49 49 45 42 40 37 36 33 36 37 35 29 29 27 29 28 30 34 34 33 35 39 38 39 39 40 40 40 47 45 43 45 43 53 59 60 60 60 60 61 61 61 61 61 62 62 63 64
53 53 53 53 54 53 52 52 52 52 51 51 51 52 53 58 59 59 59 60 59 57 54 52 52 54 36 40 43 42 36 31 27 22 25 39 38 39 52 50 48 46 45 41 36 34 32 33 32 31 31 29 26 29 28 29 29 30 34 33 33 37 37 36 35 36 38 41 43 45 43 43 44 56 59 59 59 59 59 60 61 61 61 61 61 62 63 63
53 53 53 54 54 53 52 51 52 51 51 51 51 51 50 58 60 59 58 58 58 57 55 54 53 48 38 37 21 20 26 27 23 22 21 20 33 41 51 49 47 45 43 37 38 31 31 31 28 28 25 28 26 27 29 29 30 31 32 33 32 32 32 33 33 35 38 40 40 43 44 43 49 56 58 59 59 59 59 60 60 60 61 61 61 62 62 63
54 54 54 54 52 52 52 52 51 51 51 51 51 53 55 58 48 52 48 53 29 18 13 28 34 21 13 17 22 27 28 24 22 22 19 39 40 40 47 45 46 40 38 34 33 30 29 28 28 27 24 26 27 27 29 32 34 34 33 32 32 31 32 32 33 34 36 37 39 40 42 43 51 55 58 59 59 58 58 59 60 60 61 61 61 61 62 62
54 54 54 53 52 52 51 51 51 50 50 48 43 38 30 26 21 18 30 24 19 16 13 13 39 31 30 27 24 24 22 22 22 19 20 24 39 39 39 43 43 39 34 28 31 30 27 25 23 22 23 25 28 28 28 30 32 32 32 32 31 31 31 32 32 33 37 36 38 39 41 43 47 55 57 58 59 58 58 59 59 60 60 61 61 61 62 62
54 53 53 52 51 51 51 50 50 50 50 47 41 25 24 26 22 19 25 22 21 22 20 20 19 20 19 20 20 20 19 20 23 22 21 25 28 39 37 39 39 35 34 30 30 34 26 23 23 21 21 22 23 25 27 29 30 31 32 29 28 30 30 32 33 32 34 31 33 39 42 43 44 53 56 58 58 58 58 58 59 59 60 60 61 61 61 62
53 53 52 51 50 50 50 50 50 50 50 45 35 23 25 27 30 29 23 19 19 21 22 21 22 20 21 20 20 21 22 20 19 21 21 20 36 35 35 36 36 34 34 30 30 29 27 24 22 22 22 21 23 26 27 27 28 30 30 31 28 27 27 26 26 28 30 34 31 36 38 39 42 50 55 56 57 58 58 58 59 59 60 60 60 60 61 61
53 53 52 51 50 49 49 50 49 50 43 41 39 32 26 28 30 29 24 21 20 22 22 23 23 22 22 23 25 24 21 21 18 20 20 23 31 34 33 33 34 33 32 30 27 28 27 26 26 27 25 23 25 31 31 29 29 30 30 29 29 28 27 27 30 26 29 28 30 36 34 35 41 51 55 56 57 57 58 58 59 59 59 59 60 60 60 60
53 53 52 51 50 49 49 49 49 42 39 40 40 30 27 30 32 27 22 19 17 19 24 24 25 24 23 17 25 23 21 21 21 15 24 23 30 33 33 33 31 31 31 30 28 28 27 26 29 28 28 24 24 29 31 31 31 32 32 30 30 28 25 26 27 24 25 26 28 35 38 35 40 47 52 55 56 56 57 57 58 59 59 60 61 60 60 60
53 53 52 51 49 49 48 48 37 38 40 39 40 41 32 37 38 28 22 21 20 23 26 28 31 27 18 26 26 20 23 23 21 20 24 18 17 30 30 33 32 30 30 31 30 28 27 26 28 27 27 28 25 27 29 29 30 30 30 32 31 30 27 26 25 23 23 23 27 26 26 29 36 43 47 52 55 55 56 56 56 57 58 59 58 59 60 60
53 52 51 50 49 49 48 31 30 38 38 33 28 30 36 38 38 32 25 20 15 19 24 16 29 18 24 14 17 23 23 18 20 20 27 19 25 19 31 29 32 30 30 29 29 30 28 28 26 25 25 28 28 26 28 29 29 29 30 29 30 29 26 24 23 23 25 26 30 29 24 26 34 40 45 51 54 54 55 55 55 56 57 58 58 58 59 59
52 52 51 49 49 48 34 29 33 39 28 28 29 36 39 39 42 27 20 17 17 22 16 18 18 20 20 12 12 21 11 12 16 17 19 32 21 22 16 23 30 31 30 29 30 27 29 28 28 27 26 27 28 28 30 28 29 29 31 29 27 27 25 24 22 21 24 31 29 26 28 26 25 27 43 50 52 53 54 55 55 55 56 56 57 57 58 59
52 51 50 49 48 49 40 43 41 36 34 34 37 40 42 44 36 29 18 7 12 19 15 16 16 18 14 12 13 13 13 15 15 16 19 20 23 19 16 18 26 27 28 27 25 29 28 27 27 28 27 27 27 28 31 28 29 28 28 26 26 25 25 24 23 22 25 23 21 23 28 25 30 30 40 49 50 51 53 54 55 55 56 56 57 57 57 58
51 51 50 49 48 48 47 44 42 38 38 40 41 43 44 39 29 25 13 0 21 17 20 16 18 18 11 14 13 15 15 17 16 17 19 26 29 19 14 15 23 24 26 27 26 26 28 28 27 28 28 27 28 30 32 30 29 30 24 26 24 23 24 23 23 22 27 24 22 25 22 22 24 28 30 48 47 48 51 53 54 55 56 56 56 57 57 58
51 50 50 48 46 44 43 45 42 42 43 42 43 45 40 28 23 22 7 -1 14 12 14 15 11 9 13 12 13 13 14 16 18 18 24 28 28 28 26 24 21 18 17 23 26 26 26 34 31 27 27 28 29 30 31 30 31 28 27 24 23 22 22 32 25 24 25 19 22 22 21 22 21 26 24 35 45 47 49 52 53 54 55 56 56 56 57 57
50 49 49 48 43 44 45 35 35 39 42 44 45 37 26 25 25 15 5 11 14 18 13 10 9 12 12 12 11 12 15 16 16 19 25 27 27 26 26 25 26 24 21 20 20 25 27 28 29 28 28 27 27 27 29 31 31 30 27 27 27 27 27 26 28 27 20 21 25 22 21 22 20 26 27 29 41 47 48 49 51 53 54 55 56 56 56 57
49 48 48 46 46 50 37 35 38 42 43 44 40 25 17 12 14 9 8 17 12 11 9 9 10 12 12 13 12 12 12 15 16 17 24 26 26 25 25 23 24 22 19 20 19 20 23 26 29 30 34 26 26 25 25 28 29 29 28 28 25 25 24 22 23 21 20 22 26 22 21 22 21 23 25 26 33 42 48 48 49 51 52 54 55 56 57 57
48 47 47 45 51 47 47 43 44 43 41 40 30 22 16 14 10 20 12 12 16 11 8 14 8 12 12 11 10 12 14 14 16 17 19 26 26 26 26 25 24 24 20 23 21 17 18 25 27 27 30 30 26 23 24 25 26 28 27 28 26 24 22 21 22 24 21 24 24 24 24 21 27 26 23 23 27 37 45 48 48 50 51 53 54 55 56 57
48 47 43 42 43 45 45 46 39 38 38 38 24 24 19 6 12 24 14 13 11 13 15 10 10 13 12 10 11 12 12 14 16 16 23 26 26 26 26 26 24 22 23 25 21 23 17 17 20 25 25 32 26 25 25 26 26 27 28 27 27 26 24 22 23 19 18 21 21 22 21 24 20 28 24 24 24 30 42 46 48 49 50 52 53 54 55 56
48 44 41 41 48 49 41 38 37 39 32 25 24 22 15 15 23 13 13 13 13 12 10 11 14 12 11 11 12 13 15 15 17 18 26 26 26 26 26 26 25 24 23 23 29 27 23 24 24 29 30 30 28 28 28 27 26 26 27 28 27 26 33 24 25 22 19 18 18 20 21 25 24 31 38 26 24 27 36 44 47 48 49 50 51 52 54 55
43 40 42 43 45 33 35 38 37 38 25 24 25 21 18 18 10 13 15 15 14 11 10 11 13 11 12 11 15 13 14 17 18 18 22 27 26 26 27 26 25 25 24 22 24 25 28 27 28 28 30 29 27 30 29 28 25 27 27 26 26 28 26 28 34 33 25 20 16 25 19 20 20 19 20 27 26 27 32 39 44 46 47 50 50 51 52 54
41 42 38 41 37 33 36 37 37 36 33 26 22 21 23 25 14 12 33 12 11 11 11 9 11 11 11 11 12 13 13 18 19 18 20 21 26 27 26 27 27 26 26 25 24 28 23 23 27 29 28 30 31 31 28 28 28 26 25 26 26 27 28 28 24 23 22 19 20 21 17 20 17 18 28 27 26 26 31 37 41 44 46 48 49 50 52 53
43 42 44 46 35 34 37 38 38 32 30 31 27 36 31 15 20 19 15 15 12 11 11 12 13 14 14 13 12 13 13 19 19 20 18 24 25 28 27 27 28 26 26 27 25 25 26 28 31 32 31 30 30 27 18 23 26 26 26 26 25 23 23 26 27 22 19 19 19 18 25 23 18 21 26 23 23 24 30 36 40 42 45 47 48 50 51 52
42 41 35 36 33 36 37 38 37 35 30 25 26 32 31 15 24 23 23 18 14 12 11 13 12 16 15 13 14 13 14 18 20 21 22 24 22 27 27 27 27 26 26 27 23 23 29 30 29 32 29 30 28 23 18 17 22 27 26 26 28 24 25 25 25 26 24 20 20 17 18 15 22 17 19 18 23 23 25 31 38 41 44 46 48 49 50 52
42 32 28 33 34 37 38 41 29 26 25 21 24 27 26 22 21 23 24 23 15 12 15 15 16 14 16 16 15 13 14 21 22 22 23 26 25 29 28 29 26 25 26 27 24 24 28 32 26 27 29 28 26 23 19 18 19 23 23 24 25 27 26 26 25 22 24 23 19 17 15 21 25 24 18 18 21 23 24 28 34 39 43 45 47 48 50 51
43 35 32 33 36 38 36 34 32 28 26 28 25 24 23 24 23 24 24 22 18 17 15 15 15 13 16 15 13 14 15 18 24 24 25 26 26 26 29 28 27 25 26 26 24 25 30 30 27 27 26 25 26 28 30 29 29 29 22 22 22 22 22 22 22 21 20 22 21 18 18 23 23 30 20 18 19 19 25 27 32 36 40 44 46 48 50 51
35 25 27 33 38 37 33 31 34 34 29 31 30 32 28 36 24 24 24 25 21 20 19 16 16 16 18 17 16 16 20 24 28 28 28 26 28 27 28 29 27 26 24 25 24 26 33 34 31 23 24 23 23 24 25 26 27 29 30 27 21 22 21 23 22 23 21 20 29 25 19 21 27 29 26 22 19 17 22 31 33 35 39 42 45 47 50 51
36 31 33 40 38 36 32 31 38 38 32 32 35 35 32 26 26 26 25 26 24 25 21 18 18 19 22 21 19 20 22 26 30 30 30 30 30 29 30 29 27 24 24 25 29 29 36 29 25 22 24 25 26 27 29 34 31 31 31 28 27 20 22 20 22 23 19 22 21 21 21 23 28 35 27 23 32 22 32 33 36 38 40 43 45 47 50 51
38 38 39 39 38 36 33 30 30 32 35 35 35 32 31 28 29 28 26 29 28 27 26 21 23 23 26 24 22 21 23 20 26 29 29 31 29 31 31 29 27 24 27 30 34 33 24 26 24 22 23 24 23 26 28 31 27 27 25 26 27 28 28 27 25 28 22 19 19 20 18 19 29 48 43 39 37 28 23 23 35 38 41 42 44 47 49 51
40 41 40 40 38 35 33 34 33 32 34 34 34 31 30 30 30 30 29 28 30 29 27 22 25 27 25 26 24 23 23 20 21 29 30 33 30 34 30 29 28 26 32 34 36 31 28 28 26 21 21 20 19 19 22 24 25 26 26 25 25 24 24 27 26 24 20 27 25 20 18 28 29 35 32 36 35 35 32 36 33 35 39 42 44 46 50 51
33 28 32 33 35 33 35 36 34 34 33 34 33 33 31 30 30 32 31 30 30 30 27 29 28 27 28 26 24 23 23 24 22 23 30 30 31 30 30 29 29 27 35 34 33 30 30 31 28 27 23 22 24 26 23 28 27 23 23 23 23 24 25 27 31 28 21 27 24 24 24 27 25 24 26 23 27 23 21 29 31 29 33 38 45 47 48 51
35 31 32 30 34 33 32 33 34 34 33 35 31 33 30 30 31 33 34 30 31 31 29 28 30 29 30 28 27 24 25 24 27 25 25 27 28 26 31 32 30 31 34 31 32 28 32 27 27 30 28 25 24 25 24 26 24 23 23 22 23 23 24 26 28 26 31 25 19 26 32 22 19 22 23 25 23 24 23 26 26 29 29 31 36 45 54 49
29 33 35 35 31 29 31 31 33 35 35 35 33 35 32 31 32 32 33 34 32 32 29 32 31 32 32 30 29 25 27 26 27 24 28 29 29 28 25 30 29 32 32 28 29 26 29 25 24 24 23 25 24 24 24 23 22 22 22 22 22 23 24 26 28 29 31 26 21 26 33 25 20 20 20 22 24 24 19 20 21 24 27 31 35 40 46 48
35 37 35 38 33 35 33 33 35 35 33 34 36 34 32 33 32 33 33 31 32 32 32 28 30 32 32 33 30 27 27 23 24 29 26 26 27 27 26 32 30 34 30 31 28 33 27 25 25 24 23 24 24 23 23 22 22 22 23 23 24 24 24 26 28 29 30 31 30 27 32 24 19 19 24 23 27 23 21 30 38 40 33 35 34 40 44 48
36 36 35 40 38 36 36 35 34 33 31 36 35 34 34 33 32 33 35 34 32 32 34 32 32 33 33 33 31 27 28 27 26 25 30 28 27 27 28 29 34 36 34 31 28 29 27 26 30 25 25 23 23 24 23 24 23 21 22 23 24 28 34 38 37 36 36 32 29 27 27 27 28 44 44 41 42 45 47 45 41 39 38 42 45 45 47 49
44 45 43 38 35 35 36 35 32 32 30 33 34 34 34 33 32 35 34 35 33 32 34 32 33 34 34 33 33 31 31 30 30 29 29 29 26 29 26 31 35 33 32 32 31 29 29 29 28 28 23 22 25 24 22 22 22 22 24 27 34 36 40 45 40 42 34 33 29 26 26 24 32 51 53 49 42 43 45 47 48 45 44 48 49 49 50 50
48 47 46 42 35 37 34 34 33 29 27 35 34 33 33 33 34 35 33 36 37 36 35 35 34 34 33 33 31 31 31 30 30 30 30 29 29 29 28 27 29 29 32 31 33 31 30 28 27 24 23 22 24 23 21 21 29 30 32 35 37 38 39 43 49 50 50 49 36 24 21 44 52 54 52 47 42 54 59 60 59 56 50 49 50 50 50 51